Regional Weather Roundup
Issued by NWS Wakefield, VA

Home | Current Version | Previous Version | Graphics & Text | Print | Product List | Glossary On
Versions: 1 2 3 4 5 6 7 8 9 10 11 12 13 14 15 16 17 18 19 20 21 22 23 24 25 26 27 28 29 30 31 32 33 34 35 36 37 38 39 40 41 42 43 44 45 46 47 48 49 50
000
ASUS41 KAKQ 100515
RWRAKQ

REGIONAL WEATHER ROUNDUP
NATIONAL WEATHER SERVICE WAKEFIELD VA
1200 AM EST SAT DEC 10 2016

Note: "fair" indicates few or no clouds below 12,000 feet with no
significant weather and/or obstructions to visibility. * = Denotes
station may not report precipitation (e.g., rain,snow,etc.),
thunder or fog.

VAZ042-051-052>054-056-100600-
NORTHERN VIRGINIA

CITY           SKY/WX    TMP DP  RH WIND       PRES   REMARKS
WASH NATIONAL  PTCLDY    31  17  56 W8        30.44S
DULLES         PTCLDY    28  14  55 W8        30.43S
FORT BELVOIR   NOT AVBL
QUANTICO       CLEAR     30  17  58 NW9       30.47R
FREDERICKSBRG* PTCLDY    29  18  62 W6        30.46S
STAFFORD*      CLEAR     27  15  60 SW3       30.50R
WARRENTON      CLEAR     27  12  53 W3        30.44S
CULPEPER*      CLEAR     29  15  56 CALM      30.46F
MANASSAS*      NOT AVBL
LEESBURG*      CLEAR     30  21  69 W6        30.44R
WINCHESTER     MOCLDY    28  14  54 W12G17    30.42R WCI  18
FRONT ROYAL*   CLOUDY    30  14  51 W9        30.43R
LURAY*         MOCLDY    28  18  64 SW8       30.43F
$$

VAZ048-049-060>072-079>083-100600-
CENTRAL AND SOUTH CENTRAL VIRGINIA

CITY           SKY/WX    TMP DP  RH WIND       PRES   REMARKS
RICHMOND       CLEAR     27  14  58 NW7       30.46S
CHESTERFIELD*  FAIR      25   3  39 N6        30.46F
PETERSBURG*    CLEAR     22  17  80 CALM      30.46S
HANOVER        CLEAR     26  14  60 CALM      30.47F
TAPPAHANNOCK*  CLEAR     29  12  49 E3        30.46S
QUINTON*       FAIR      27  16  62 CALM      30.46S
CHARLOTTSVILLE PTCLDY    28  13  53 CALM      30.45S
GORDONSVILLE*  FAIR      29  13  51 SW3       30.45F
ORANGE*          N/A     30  16  55 W8        30.47S
LOUISA*        CLEAR     30  18  59 CALM      30.44R
BUMPASS*       FAIR      26  13  59 CALM      30.45F
FARMVILLE*     CLEAR     27  17  66 CALM      30.45S
CREWE*         FAIR      25  15  65 CALM      30.45F
FORT PICKETT*    N/A     26   8  46 NW3       30.45S
CHASE CITY*    FAIR      26  13  59 NW3       30.46S
CLARKSVILLE*   FAIR      28  14  54 CALM      30.47S
SOUTH HILL*    CLEAR     25  16  68 CALM      30.52R
LAWRENCEVILLE* FAIR      25  16  68 CALM      30.46S
EMPORIA*       CLEAR     27  16  63 W3        30.48S
$$

VAZ088>098-100600-
SOUTHEAST VIRGINIA

CITY           SKY/WX    TMP DP  RH WIND       PRES   REMARKS
NORFOLK        CLEAR     35  19  52 N14G21    30.43S
VIRGINIA BEACH PTCLDY    34  16  47 N10       30.42S
NORFOLK NAVAL  CLEAR     34  17  50 N14G23    30.45S WCI  25
WEST POINT*    CLEAR     29  16  56 NW3       30.47F
SALUDA*        FAIR      32  18  55 NW8G16    30.44S
NEWPORT NEWS   CLEAR     31  16  54 N7        30.44S
LANGLEY AFB    CLEAR     32  15  50 N13       30.43S WCI  22
FORT EUSTIS    CLEAR     32  15  50 N8        30.42S
WILLIAMSBURG*  CLEAR     30  18  59 CALM      30.46S
HR EXEC AP*    FAIR      27  18  69 NW3       30.43S
FRANKLIN*      CLEAR     24  19  80 NW3       30.46S
US460-WAKEFLD  CLEAR     23  18  81 CALM      30.46R
$$

VAZ020-022-025-037-045-100600-
WEST CENTRAL AND SOUTHWEST VIRGINIA

CITY           SKY/WX    TMP DP  RH WIND       PRES   REMARKS
STAUNTON*      PTCLDY    22  13  68 S5        30.45S
WAYNESBORO*    FAIR      22  10  59 W3        30.42R
HOT SPRINGS VA CLOUDY    14   9  79 W12G18    30.24F WCI   0
LYNCHBURG      CLEAR     23  12  62 CALM      30.46R
DANVILLE       CLEAR     25  14  63 W5        30.48S
SOUTH BOSTON*  FAIR      26  12  55 CALM      30.48F
MARTINSVILLE   CLEAR     20  12  69 CALM      30.51R
ROANOKE        CLEAR     23  11  60 NW6       30.49R
BLACKSBURG     PTCLDY    20  11  68 W5        30.45R
DUBLIN*        PTCLDY    20  14  76 W6        30.45R
MARION*        CLEAR     18  12  77 SW9       30.44S
HILLSVILLE*    CLEAR     17  11  79 CALM      30.37S
RICHLANDS*     CLOUDY    18  13  80 W3        30.41F
WISE*          CLEAR     18  12  79 CALM      30.42F
ABINGDON*      CLEAR     19  14  83 CALM      30.46S
$$

MDZ021>025-VAZ099-100-100600-
SOUTHERN MARYLAND AND THE DELMARVA PENINSULA

CITY           SKY/WX    TMP DP  RH WIND       PRES   REMARKS
PATUXENT RIVER CLEAR     30  17  58 W12       30.43S WCI  20
BAY BRIDGE APT CLEAR     32  19  59 MISG      30.42S
LEONARDTOWN    CLEAR     30  18  59 W7        30.45S
DOVER          CLEAR     30  19  65 W8        30.38R
GEORGETOWN     PTCLDY    30  18  60 W6        30.41R
EASTON         CLEAR     32  18  55 NW10G18   30.45R WCI  24
CAMBRIDGE      CLEAR     32  19  59 NW8       30.42R
SALISBURY      PTCLDY    30  18  60 W7        30.41R
OCEAN CITY     CLEAR     30  18  60 NW7       30.41R
WALLOPS ISLAND CLEAR     29  20  69 NW7       30.42F
ACCOMACK*      CLOUDY    34  21  60 NW9       30.43S
$$

NCZ012>017-030>032-100600-
NORTH CENTRAL AND EASTERN NORTH CAROLINA

CITY           SKY/WX    TMP DP  RH WIND       PRES   REMARKS
ROANOKE RAPIDS FAIR      28  19  69 NW5       30.47R
RALEIGH        CLEAR     28  14  55 CALM      30.50R
ELIZABETH CITY CLEAR     29  19  66 NW7       30.44S
AHOSKIE*       CLEAR     28  18  68 CALM      30.47R
EDENTON*       NOT AVBL
CURRITUCK*     CLEAR     31  19  61 CALM      30.43F
KILL DEVIL HLS CLEAR     36  23  59 NW3       30.40F
MANTEO         CLEAR     37  18  47 N10G18    30.42F
CAPE HATTERAS  CLEAR     39  20  46 VRB5      30.42S
TARBORO*       NOT AVBL
GOLDSBORO      CLEAR     28  18  65 W3        30.47R
WASHINGTON     CLEAR     27  21  78 CALM      30.47R
GREENVILLE     CLEAR     30  21  69 CALM      30.47R
NEW BERN       CLEAR     27  23  85 CALM      30.48R
WILMINGTON     CLEAR     28  23  81 N3        30.48S
$$

VAZ048-100600-
ELSEWHERE

CITY           SKY/WX    TMP DP  RH WIND       PRES   REMARKS
HARRISBURG PA  MOCLDY    30  19  63 W14       30.36R WCI  19
BALTIMORE      CLEAR     28  18  66 W9        30.41R
ANNAPOLIS      CLEAR     32  18  56 W6        30.42S
ANDREWS AFB    CLEAR     29  16  58 W9        30.41S
PHILADELPHIA   PTCLDY    30  19  63 W9        30.35R
HENDERSON NC   CLEAR     25  11  56 NW5       30.47R
GREENSBORO     CLEAR     25  14  63 NW5       30.47R
ROCKY MOUNT    CLEAR     28  17  63 CALM      30.48R
$$

VAZ100-100600-
MARINE

STATION/POSITION TIME  TEMP    WIND        PRES    WAVE   SWELL
                       AIR SEA DIR/SP/G            HT/PER HT/PER
                 (UTC) (F)     (DEG/KT/KT) (MB)    (FT/S) (FT/S)
BRANDYWINE LGT   0448   33     310/ 18/ 21   N/A
CAPE MAY NJ      0448   34 40  310/ 14/ 24 1028.1R
LEWES DE         0448   31 44  270/  8/ 11 1029.1R
OCEAN-CITY-INLET 0442   31 43  300/  7/  9 1029.8R
WACHAPREAGUE VA  0442   33 41  290/  3/  7 1030.1S
THOMAS POINT MD  0500   32 44  280/ 13/ 14   N/A
GOOSES REEF MD   0500   33 48  290/ 14/ 17 1031.0    2/ 3
COVE POINT MD    0442   31     310/  9/ 12 1031.1R
SOLOMONS ISLAND  0442   32 47  270/  8/ 12   N/A
BISHOPS HEAD MD  0448   33 37  310/ 12/ 17 1030.7R
PINEY POINT MD   0448          330/ 23/ 26   N/A
POTOMAC MD       0450   36     310/ 19/ 25 1030.2R
CAMBRIDGE MD     0448   34 43  300/ 14/ 22 1029.6R
LEWISETTA VA     0442   32 44  290/  7/  9 1030.8R
RAPPAHANNOCK LGT 0448          320/ 21/ 23 1030.8F
STINGRAY PT      0450   35     330/ 16/ 19 1031.2R
YORK RVR RNG VA  0442   35     340/ 21/ 23 1030.3R
YORKTOWN VA      0442   34 49  330/ 13/ 17 1030.6S
JAMESTOWN VA     0450   31     340/  6/ 10   N/A
DOMINION TERM VA 0442   34      30/  2/  6 1030.6F
KIPTOPEKE VA     0448      47  360/ 16/ 20   N/A
CHES BAY BRIDGE  0442   37 49  350/ 20/ 24 1030.2S
CAPE HENRY VA    0442   37     330/ 21/ 26   N/A
WILLOUBY STN VA  0442   35     350/ 17/ 21 1031.2F
S CRANEY ISL VA  0442   35     350/ 12/ 19 1030.3F
CAPE HENRY BUOY  0442      53                N/A     4/ 4
1ST LANDING BUOY 0450   37                 1030.8S
CAPE CHARLES BUO 0456      51                N/A     3/ 4
OFFSHORE WE BUOY 0451      54                N/A     5/ 6
64NM E OF VA BCH 0450   41 58  340/ 17/ 23 1028.7R   6/ 6
DUCK PIER NC     0442   36 52  320/ 12/ 16 1029.2F
44100 DUCK FRF   0435      55                N/A     4/ 6
OREGON INLET NC  0442   37 51  320/  9/ 14 1029.9F
HATTERAS NC      0448   40 54  340/ 14/ 18 1029.8S
DIAMOND SHLS NC  0450   42 77  350/ 16/ 23 1029.7F   5/10   3/10
CAPE LOOKOUT NC  0400   38     350/  9/ 11 1030.6R
$$



USA.gov is the U.S. government's official web portal to all federal, state and local government web resources and services.